Regional Weather Roundup
Issued by NWS Northern Indiana

Home | Current Version | Previous Version | Graphics & Text | Print | Product List | Glossary On
Versions: 1 2 3 4 5 6 7 8 9 10 11 12 13 14 15 16 17 18 19 20 21 22 23 24 25 26 27 28 29 30 31 32 33 34 35 36 37 38 39 40 41 42 43 44 45 46 47 48 49 50
000
ASUS43 KIWX 271310
RWRIWX

KIWX WEATHER ROUNDUP
NATIONAL WEATHER SERVICE NORTHERN INDIANA
900 AM EDT SAT MAY 27 2017

NOTE: "FAIR" INDICATES FEW OR NO CLOUDS BELOW 12,000 FEET WITH NO
SIGNIFICANT WEATHER AND/OR OBSTRUCTIONS TO VISIBILITY.

* THESE STATIONS ARE NOT UNDER NWS QUALITY CONTROL. THEY ALSO MAY NOT
  REPORT WEATHER SUCH AS PRECIPITATION OR FOG.

INZ001>027-271400-
NORTHERN INDIANA

CITY           SKY/WX    TMP DP  RH WIND       PRES   REMARKS
GARY*          CLOUDY    57  54  88 N6        29.93R
VALPARAISO     CLOUDY    61  59  93 N7        29.92R
MICHIGAN CITY* CLOUDY    57  57 100 NW6       29.93R FOG
LAPORTE*       CLOUDY    59  58  94 N5        29.91R
KNOX*          CLOUDY    59  55  88 N3        29.90R
SOUTH BEND     CLOUDY    61  59  93 VRB5      29.90R
ELKHART*       PTSUNNY   63  59  88 E5        29.88R
GOSHEN         CLOUDY    62  57  83 E6        29.88R
MONTICELLO*    CLOUDY    61  60  95 CALM      29.89R FOG
LOGANSPORT*    CLOUDY    61  61 100 N5        29.89R FOG
ROCHESTER*     CLOUDY    63  63 100 CALM      29.89R FOG
WARSAW*        CLOUDY    59  59 100 E6        29.88S FOG
ANGOLA*        CLOUDY    61  52  72 E5        29.88R
FORT WAYNE     CLOUDY    62  60  93 NE7       29.88R FOG
HUNTINGTON*    CLOUDY    61  60  96 N3        29.88R FOG
PERU/GRISSOM   CLOUDY    63  63 100 N5        29.87R FOG
MARION*        CLOUDY    64  64 100 CALM      29.88R FOG

$$
INZ028>050-271400-
CENTRAL INDIANA

CITY           SKY/WX    TMP DP  RH WIND       PRES   REMARKS
LAFAYETTE      CLOUDY    61  61 100 N6        29.89R FOG
KOKOMO*        CLOUDY    63  63 100 N6        29.89R FOG
MUNCIE*        CLOUDY    69  65  86 W6        29.87R
INDIANAPOLIS   MOSUNNY   71  65  81 NW9       29.86F

$$
MIZ043>046-050>051-056>058-064>065-071>073-077>080-271400-
SOUTHWEST LOWER MICHIGAN

CITY           SKY/WX    TMP DP  RH WIND       PRES   REMARKS
BATTLE CREEK   SUNNY     64  58  80 CALM      29.90R
BENTON HARBOR    N/A     60  58  92 NW3       29.91R
COLDWATER*     SUNNY     64  62  94 E6        29.89S
HILLSDALE*     PTSUNNY   63  57  82 SE3       29.89R
HOLLAND        SUNNY     64  56  75 CALM      29.92R
GRAND RAPIDS   MOSUNNY   65  59  81 NE3       29.90R
KALAMAZOO      PTSUNNY   63  59  87 CALM      29.90R
STURGIS*       MOSUNNY   62  60  93 E3        29.88R
THREE RIVERS*  PTSUNNY   62  60  92 CALM      29.90R

$$
OHZ001>008-015>018-024>025-271400-
NORTHWEST OHIO

CITY           SKY/WX    TMP DP  RH WIND       PRES   REMARKS
WAUSEON*       CLOUDY    63  63 100 NE6       29.89R FOG
DEFIANCE       CLOUDY    62  59  90 E6        29.88R
FINDLAY        CLOUDY    64  59  83 E8        29.87R
TOLEDO EXPRESS CLOUDY    64  62  93 E6        29.88R
TOLEDO METCALF MOSUNNY   65  61  87 E6        29.89R
LIMA           CLOUDY    63  62  97 NE5       29.87R

$$
AND FOR LAKE MICHIGAN COASTAL AND OPEN LAKE BUOY OBSERVATIONS

STATION/POSITION TEMP    WIND        PRES    VSBY  WAVE
                 AIR SEA DIR/SP/G                  HT/PER
                 (F)     (DEG/KT/KT) (MB)    (MI)  (FT/S)
CALUMET HARBOR    56     340/  6/  7 1013.0R
MICHIGAN CITY     53      10/  5/  6   N/A
BURNS HARBOR      53      20/  3/  5 1014.2R
SOUTH LAKE BUOY   49 46   50/  4/  4 1012.7          0
4 MI NW BRIDGMAN  57 58   50/  6/  8 1013.2          1
MICHIGAN CITY     52 54  350/  8/ 10   N/A           1

$$
&&




USA.gov is the U.S. government's official web portal to all federal, state and local government web resources and services.